Vorticity
7 8 8 8 7 9 8 7 6 3 2 2 1 3 4 7 10 10 11 10 7 7 7 8 8 6 5 5 6 8 7 7 8 8 8 7 6 8 7 7 9 10 10 10 10 9 8 8 7 6 7 6 6 7 6 7 7 6 8 10 9 8 8 7 6 6 6 5 4 4 6 7 7 7 8 7 6 5 5 5 5 5 6 7 9
10 8 8 8 6 8 9 8 9 7 5 5 3 2 2 2 5 7 9 11 11 10 8 7 8 7 7 6 4 5 5 5 7 6 6 7 7 7 7 7 7 8 9 9 9 10 10 10 9 9 9 7 6 5 4 4 5 4 5 6 5 5 5 5 4 4 6 6 5 6 6 7 7 7 8 7 6 4 4 5 6 7 8 10 12
13 11 9 9 7 7 8 8 9 8 7 7 5 5 4 3 3 2 4 7 9 11 11 9 7 6 7 8 6 5 5 5 6 5 6 7 7 7 7 7 7 6 7 7 7 9 10 11 11 11 10 9 9 9 7 6 5 5 5 4 4 4 5 5 5 6 6 7 8 8 7 6 6 6 7 7 6 5 4 5 6 7 9 12 14
11 12 10 11 9 8 9 9 10 10 8 8 7 7 7 6 6 4 4 4 4 6 9 10 10 9 7 7 7 6 6 6 6 6 6 6 5 6 6 6 6 6 7 7 6 6 7 9 10 11 11 10 10 11 9 9 10 11 10 9 9 8 8 9 9 9 9 9 11 10 7 5 5 6 6 6 6 5 4 4 5 7 10 12 13
12 14 11 12 10 9 10 9 11 12 10 9 7 7 8 7 8 7 6 6 5 4 5 6 9 10 10 9 7 7 7 6 7 7 7 7 5 6 7 6 6 6 6 7 7 6 6 6 6 7 9 9 10 11 10 9 10 11 10 9 10 9 10 12 11 10 10 10 11 11 10 8 6 6 7 6 5 5 4 5 7 7 8 11 12
12 10 8 12 11 9 10 9 10 12 12 11 9 7 7 7 7 7 7 7 7 6 5 5 5 6 9 10 9 7 6 6 7 7 7 7 6 5 5 6 7 7 7 7 7 7 7 6 6 6 6 6 7 8 9 8 6 7 7 8 9 9 9 9 10 9 9 9 9 9 10 9 8 7 8 7 6 6 5 6 7 8 8 10 12
6 3 6 11 10 9 10 9 10 11 12 13 12 10 8 7 6 7 8 10 9 8 7 7 7 5 5 6 8 9 9 7 6 6 7 8 7 6 5 5 6 5 6 7 7 7 7 7 8 8 8 7 6 6 7 7 6 7 8 7 7 7 7 7 7 7 7 7 7 7 7 8 8 8 8 8 7 6 6 5 5 5 6 9 13
5 4 6 8 7 8 10 9 9 10 11 12 13 12 11 9 8 7 8 9 9 9 9 9 10 9 7 5 5 6 9 10 7 6 7 7 7 7 6 6 6 5 5 8 7 6 7 7 7 9 9 9 9 9 9 7 7 7 7 7 7 6 6 6 6 6 6 6 6 6 6 6 6 7 7 7 7 6 7 6 5 5 3 4 10
4 4 6 7 7 8 8 8 8 7 8 9 10 11 11 9 9 8 7 6 6 7 8 8 8 10 10 10 8 5 5 8 10 10 8 6 6 7 7 6 7 6 6 7 7 7 7 6 7 7 8 8 8 9 10 8 7 7 6 6 6 6 6 5 5 5 5 6 5 5 6 5 4 5 5 5 6 6 7 8 7 7 5 3 4
7 5 6 6 6 7 6 5 6 7 7 7 7 6 6 6 6 5 4 4 4 4 4 5 6 7 8 9 10 9 6 4 6 8 10 9 5 5 7 7 7 7 6 7 7 8 8 7 7 6 6 7 7 7 9 9 9 9 8 7 6 5 6 5 5 5 5 5 6 5 5 5 4 5 5 5 6 7 8 9 9 9 8 5 2
6 5 5 5 5 5 5 5 5 6 6 5 3 3 3 3 3 2 2 1 0 1 2 4 5 4 4 5 7 8 8 7 5 4 7 11 11 9 7 6 7 6 5 6 6 7 8 8 6 4 5 7 6 5 6 7 8 9 8 9 8 7 7 6 6 7 6 6 6 6 6 6 6 6 5 5 6 6 7 8 8 9 10 9 5
8 5 1 2 4 3 4 5 6 6 6 4 4 4 4 5 5 3 3 3 2 3 6 8 8 4 3 5 6 6 6 8 9 7 5 7 10 11 9 7 7 5 3 3 4 6 8 8 6 5 7 9 8 9 9 6 6 8 8 9 10 9 10 10 9 8 7 7 7 7 7 7 7 7 6 6 6 7 7 7 7 8 9 10 9
7 8 4 2 3 4 4 5 6 6 6 3 2 2 3 4 4 5 7 8 8 9 11 13 9 4 4 8 10 11 10 9 9 9 8 6 6 9 10 9 7 6 6 5 5 7 7 7 7 6 6 6 5 9 13 9 6 7 8 8 8 9 10 9 10 10 8 8 9 9 10 9 9 8 8 8 8 7 8 7 6 7 9 9 9
11 9 6 3 3 5 4 5 7 8 6 2 -2 -2 2 3 3 4 5 5 6 7 8 10 7 4 7 10 12 14 12 7 5 8 9 8 5 5 8 11 11 9 9 7 6 7 6 6 8 7 5 4 2 4 10 11 9 7 5 5 6 7 8 8 9 9 8 6 5 8 11 11 10 10 11 12 11 9 9 8 7 8 10 10 9
30 24 15 5 -1 2 3 3 6 5 2 -0 -2 -1 4 5 4 4 2 2 4 2 2 5 4 6 11 12 14 19 15 6 3 6 10 10 8 5 4 9 12 10 10 9 8 8 8 8 9 7 6 5 2 -0 1 7 11 9 6 6 6 5 6 7 7 7 6 4 2 4 8 10 8 8 9 9 9 9 10 10 9 9 10 11 10
26 41 43 26 8 2 4 6 7 4 2 3 4 5 6 4 5 10 9 10 12 11 11 10 6 7 10 6 8 16 17 13 8 6 9 10 9 6 4 6 9 9 9 11 10 9 9 8 8 7 7 7 4 -2 -3 4 9 9 8 10 9 8 8 9 10 10 9 8 6 4 5 7 8 8 7 7 6 6 7 8 8 8 8 8 8
12 32 47 47 33 17 12 17 19 16 14 13 10 9 8 7 13 20 19 19 21 20 18 12 6 7 8 3 3 5 6 11 12 10 12 12 10 8 6 4 4 5 8 9 9 9 9 8 11 12 11 9 6 2 2 4 5 5 7 9 9 10 10 8 9 10 9 9 9 7 5 5 6 7 8 8 7 7 7 7 7 7 7 6 7
12 15 20 33 40 29 21 24 25 22 23 23 20 21 21 18 18 18 15 16 18 15 13 11 8 10 10 9 14 12 4 4 10 16 17 11 8 12 9 4 3 3 4 6 6 6 7 6 7 10 9 7 6 6 6 3 1 1 4 6 7 8 8 8 7 6 6 6 7 8 8 7 6 6 7 8 8 8 8 9 9 9 8 8 9
13 15 9 11 18 18 15 16 15 13 17 21 20 19 20 19 17 16 15 15 15 14 13 10 8 11 14 14 16 16 9 4 10 25 28 13 7 13 10 4 5 4 2 4 4 4 6 5 4 4 4 4 5 6 7 6 6 6 4 3 5 6 6 6 7 6 5 6 7 7 8 8 8 7 7 8 8 7 7 8 8 9 9 9 10
6 12 13 9 8 9 9 9 8 5 5 10 10 5 5 8 8 9 12 15 16 14 9 5 5 9 17 24 25 25 28 23 11 14 26 21 11 12 12 7 6 7 6 6 6 4 3 3 3 3 2 3 3 4 5 5 6 8 7 5 5 6 6 5 5 5 4 4 5 6 6 6 6 6 7 8 8 7 6 6 7 8 8 9 9
3 5 9 10 10 10 7 8 13 11 5 5 8 6 6 6 3 3 6 8 12 13 10 10 9 4 5 16 20 18 29 38 24 9 16 24 16 11 14 14 9 8 9 7 9 11 10 7 6 6 6 8 8 8 7 4 4 7 10 9 8 12 15 12 7 7 6 6 8 9 10 10 9 9 10 10 11 10 7 6 7 7 8 8 9
4 4 4 5 8 10 8 7 10 12 12 14 13 9 8 5 2 4 6 6 8 10 7 7 9 4 -1 2 -0 -8 -0 24 34 24 18 19 16 12 14 14 10 9 9 7 8 12 13 11 9 11 13 13 11 11 12 11 10 11 11 9 8 14 20 19 14 12 11 10 11 13 14 14 14 14 15 15 14 13 11 11 10 10 10 9 9
4 4 5 5 6 6 8 9 5 1 4 10 12 14 18 16 8 7 9 9 10 9 3 3 12 14 7 2 1 2 4 16 33 42 33 19 13 12 11 9 8 7 8 8 8 8 10 12 13 13 15 14 12 12 11 9 9 10 9 9 10 11 14 15 14 13 12 10 10 10 11 11 11 11 12 12 11 11 10 11 12 12 11 11 11
6 5 4 6 6 6 9 14 12 6 1 -2 -6 -4 5 7 3 5 8 7 6 6 2 2 4 2 0 3 6 8 8 5 12 26 32 27 21 15 10 7 7 8 10 12 11 9 10 14 15 14 13 13 13 12 10 7 7 9 8 9 11 10 7 7 7 9 11 12 12 11 9 8 6 3 2 3 5 5 5 5 6 7 7 7 8
7 7 6 5 6 7 7 9 11 13 13 12 7 -1 -5 -4 -2 3 6 4 3 5 4 3 2 0 2 8 8 6 8 7 -0 -4 2 11 15 12 6 5 7 10 12 11 8 9 8 7 8 8 7 8 8 8 9 8 8 9 8 8 8 6 3 -0 0 3 5 7 8 8 7 5 1 -4 -5 -1 3 3 3 4 4 4 4 4 4
5 5 5 6 6 6 5 5 9 10 8 12 18 16 11 10 9 6 4 4 6 6 5 7 11 10 6 7 8 9 12 12 7 4 4 6 7 6 4 7 9 9 7 4 4 6 5 3 2 3 3 3 3 3 4 4 4 4 5 5 5 5 3 1 1 1 2 2 4 4 4 2 -0 -2 -1 3 6 6 6 6 6 6 6 5 5
15 9 3 3 5 6 5 4 7 10 7 5 8 11 12 14 15 12 9 9 8 5 3 8 16 15 12 14 16 14 10 8 9 13 16 14 11 9 7 7 8 6 5 4 4 3 3 3 3 3 3 4 4 3 4 4 5 5 6 6 7 7 6 6 5 5 5 5 5 5 5 5 4 5 6 7 8 9 8 8 7 7 8 7 7
18 18 11 4 3 4 6 5 4 5 6 6 6 7 6 6 8 12 12 10 10 7 1 3 10 10 6 9 11 5 3 5 5 4 7 10 11 11 9 7 6 4 2 2 2 1 1 2 3 4 5 5 5 5 5 5 5 6 6 7 8 8 8 9 9 9 9 8 7 7 7 6 6 6 6 6 7 7 7 6 6 6 6 6 6
7 12 14 13 10 5 3 6 6 3 3 4 4 5 6 5 4 6 8 7 9 9 4 1 6 4 -3 2 15 19 15 14 13 8 6 7 7 7 8 7 7 6 5 4 4 3 3 2 3 3 4 4 4 4 4 4 4 4 4 4 4 4 5 6 6 8 8 8 8 7 7 6 6 5 4 4 4 4 5 5 4 4 4 4 4
8 8 9 13 17 13 5 3 5 5 3 3 3 2 4 6 4 3 5 6 6 7 6 3 6 7 3 5 15 19 12 10 14 11 5 3 4 4 5 5 5 6 6 6 6 7 5 5 4 3 2 3 3 4 5 5 6 6 6 6 5 5 5 5 5 6 6 5 6 7 7 7 6 5 5 4 4 3 4 4 4 4 4 4 4
12 12 10 11 15 16 9 3 3 5 4 3 3 3 3 5 5 4 4 5 5 6 7 5 4 6 8 6 2 -6 -15 -12 -1 3 2 3 4 4 4 5 5 5 5 5 6 6 5 5 4 4 4 4 3 3 4 5 7 8 8 9 8 8 8 7 7 7 6 6 5 5 6 5 5 5 5 5 5 4 5 6 6 6 6 6 5
9 11 11 11 12 14 12 6 2 3 5 4 3 3 2 2 5 6 4 4 3 3 5 6 5 4 6 7 5 -0 -4 -1 6 9 8 7 6 5 6 6 5 5 5 5 5 5 5 5 5 4 5 5 4 5 5 5 6 7 7 8 9 9 8 8 7 6 6 6 6 6 6 6 5 5 5 5 5 5 5 5 6 6 6 6 6
7 7 8 10 11 12 14 14 8 3 2 3 3 4 4 2 3 5 6 7 6 4 3 3 3 3 3 5 5 4 1 1 3 5 7 7 7 7 7 6 5 6 6 5 6 5 4 4 4 4 5 5 6 6 7 7 8 7 6 6 5 5 5 5 4 4 4 4 4 4 4 4 4 4 4 5 5 5 5 5 5 5 5 5 5
8 7 6 7 8 8 10 14 14 9 5 4 4 4 5 4 4 4 6 7 9 9 8 6 5 3 3 3 4 5 4 1 -1 -1 1 3 5 6 6 6 6 6 5 5 5 5 4 4 4 5 5 5 5 6 6 6 6 6 5 4 4 3 3 2 3 3 2 2 3 3 3 3 3 3 4 4 4 5 6 6 6 7 7 7 7
8 8 7 6 7 7 7 8 10 11 9 8 7 7 6 6 5 5 6 7 8 7 6 7 8 7 5 4 3 3 5 5 4 3 1 1 2 3 4 4 4 4 5 4 4 4 4 5 4 4 4 4 4 5 4 3 3 2 2 1 1 1 2 2 3 3 2 2 4 5 4 5 5 6 6 6 6 7 7 7 7 8 8 9 9
10 9 9 7 6 8 8 7 7 7 8 8 9 9 9 8 7 6 6 8 7 2 -0 2 5 7 7 7 6 5 5 5 5 6 7 7 6 4 4 4 4 4 4 3 3 5 5 4 4 4 4 4 4 4 4 4 4 3 2 1 1 1 1 2 2 3 3 3 4 4 5 6 6 6 6 7 8 8 7 7 7 7 7 7 7
12 11 11 10 8 8 9 10 9 8 7 6 7 9 11 11 10 8 7 5 4 3 3 5 8 9 8 7 8 10 11 9 8 7 7 7 7 7 7 7 7 6 5 4 5 5 5 4 4 4 4 4 4 4 4 4 3 3 4 4 3 3 4 4 5 6 6 6 6 6 7 7 7 7 7 8 8 8 7 7 7 6 6 6 6
13 12 12 11 11 9 8 9 11 11 9 7 6 6 8 9 10 9 6 3 2 3 5 6 7 8 9 9 10 12 12 11 11 12 12 11 10 10 9 9 8 7 7 7 7 5 5 5 5 5 5 6 5 4 4 4 4 4 4 4 5 6 6 6 7 9 9 9 10 9 9 9 10 10 9 8 7 6 6 6 6 6 5 5 5
15 13 12 12 12 11 10 9 10 11 12 11 10 8 8 8 8 9 8 7 5 5 6 6 5 4 6 7 8 8 8 8 9 9 9 10 10 10 9 9 9 8 8 8 7 6 6 6 5 5 5 5 5 5 5 5 5 6 6 7 8 8 9 10 11 11 11 11 11 11 11 11 11 10 9 8 8 7 7 7 6 7 7 6 6
18 16 15 14 12 11 11 11 10 11 12 12 12 12 11 10 9 9 9 9 9 8 7 6 6 6 6 7 7 7 7 8 9 9 8 7 8 7 7 7 8 9 8 7 7 8 8 9 9 9 8 7 7 7 7 8 8 9 9 10 10 11 11 12 11 10 10 10 10 10 9 8 8 7 6 6 6 6 7 6 6 7 7 8 7
9 11 14 17 16 14 12 11 10 10 11 12 13 13 13 13 12 12 11 11 10 10 10 9 7 7 6 7 8 8 8 8 8 8 8 8 8 9 9 10 11 10 9 8 9 10 10 10 9 9 9 9 9 9 9 10 10 10 10 10 10 9 9 8 7 7 8 8 7 7 7 6 6 7 7 7 8 9 10 11 12 13 13 13 13
5 8 11 13 15 17 16 15 14 12 11 11 12 12 12 13 13 13 14 14 13 12 11 11 10 9 8 8 8 8 8 8 7 7 8 8 8 7 8 8 9 9 9 11 12 12 12 12 11 10 9 9 8 9 9 9 10 10 9 8 8 8 8 9 10 10 10 10 11 12 12 12 13 14 14 15 15 15 15 15 14 14 13 12 11
13 15 15 14 14 15 15 15 15 15 15 15 15 14 13 13 13 13 13 14 15 15 14 13 13 11 9 8 8 8 8 7 6 6 7 7 8 8 7 7 7 8 10 10 11 12 14 15 15 14 13 12 12 13 13 13 13 13 12 12 13 14 15 15 16 15 15 15 15 15 15 14 14 13 12 12 12 11 10 10 9 9 8 8 8
10 10 13 13 13 14 16 15 15 14 14 14 16 17 17 16 16 15 14 13 13 14 15 16 17 16 14 11 10 9 10 10 9 9 9 9 9 8 8 9 9 9 9 9 10 11 13 13 12 11 11 12 13 15 15 14 13 13 12 13 13 13 13 13 12 12 11 11 10 10 9 8 8 7 8 8 8 8 8 9 9 9 9 9 10
27 25 21 17 11 9 10 12 13 14 14 13 14 15 17 18 18 18 18 17 15 13 13 13 15 17 17 16 13 10 10 11 11 11 11 12 11 10 10 10 9 8 7 6 5 5 5 4 4 4 5 6 8 8 7 7 7 7 7 7 7 8 8 8 8 8 7 7 7 7 6 6 7 8 9 9 10 10 10 10 10 10 10 11 12
6 13 21 24 21 17 15 14 13 13 14 14 13 12 13 15 16 16 18 19 19 17 16 14 13 13 15 16 15 13 11 11 11 11 11 11 11 11 12 11 9 8 8 7 6 5 5 6 6 6 6 6 6 6 6 6 7 6 6 7 7 8 8 8 8 8 8 7 7 8 8 9 10 11 11 11 10 10 11 11 12 12 13 14 14
-10 -7 1 6 9 12 16 15 12 11 11 12 11 11 11 11 12 13 15 17 19 19 18 18 17 17 16 16 16 15 13 11 11 11 11 11 11 12 12 12 12 11 11 11 10 10 10 11 11 11 11 10 10 10 9 9 9 9 9 9 9 9 9 9 9 8 8 9 10 11 11 12 12 12 11 11 11 12 14 15 15 15 15 15 15
14 4 -0 -2 -1 3 7 8 8 8 9 9 10 11 10 10 10 10 10 11 13 15 16 17 18 18 17 17 18 18 16 14 13 12 12 12 11 11 11 12 13 13 13 13 13 13 13 13 13 12 12 12 12 11 11 11 11 11 11 11 11 11 11 11 11 11 12 12 12 12 13 13 13 13 13 15 16 17 17 16 15 15 14 12 12
23 19 16 13 10 9 9 11 11 10 8 9 10 11 10 10 11 11 10 10 10 10 12 14 15 15 16 16 16 17 18 18 17 16 16 15 15 14 13 12 12 11 11 11 11 12 12 12 13 13 13 13 12 12 12 11 11 11 12 12 11 11 11 11 12 13 12 12 13 14 15 14 14 15 16 16 15 14 13 12 12 11 10 10 10
9 19 23 23 19 15 12 11 12 13 11 11 12 11 10 9 9 9 10 11 11 11 11 12 12 13 14 14 14 14 15 16 16 16 16 17 18 18 18 18 18 17 16 14 14 14 14 13 13 13 13 13 13 13 13 12 12 13 13 13 12 12 13 14 14 14 14 15 15 15 14 14 14 14 13 11 11 10 10 9 9 9 10 11 12
4 6 9 12 14 15 13 12 13 15 15 13 12 12 13 12 12 12 12 12 12 12 13 12 11 12 12 12 12 11 10 10 10 11 11 12 13 13 14 15 16 16 17 17 17 16 16 15 15 15 14 14 14 14 14 14 15 15 14 14 15 15 14 14 14 15 15 15 14 13 13 13 12 10 10 10 10 9 9 9 10 12 12 11 10
Height
5936 5937 5939 5940 5941 5943 5944 5945 5945 5946 5946 5947 5948 5949 5950 5951 5951 5952 5952 5953 5954 5954 5955 5956 5957 5957 5958 5959 5959 5960 5960 5961 5962 5962 5962 5963 5963 5963 5963 5963 5964 5964 5964 5964 5964 5965 5964 5964 5965 5965 5965 5965 5965 5965 5965 5965 5966 5966 5966 5966 5965 5964 5964 5964 5963 5963 5963 5962 5962 5962 5962 5962 5961 5960 5959 5959 5958 5957 5956 5955 5955 5954 5954 5954 5954
5934 5936 5938 5939 5940 5941 5943 5944 5944 5944 5945 5946 5947 5948 5949 5950 5950 5951 5951 5952 5953 5953 5954 5955 5956 5956 5957 5958 5958 5959 5960 5960 5961 5962 5962 5962 5962 5963 5963 5963 5963 5963 5964 5964 5964 5964 5964 5964 5964 5964 5965 5964 5964 5964 5964 5964 5965 5965 5965 5965 5965 5964 5964 5963 5963 5962 5962 5962 5962 5962 5961 5960 5959 5959 5958 5957 5957 5956 5956 5955 5954 5954 5954 5954 5953
5933 5935 5936 5938 5938 5939 5941 5942 5943 5943 5943 5944 5945 5946 5947 5948 5949 5949 5950 5951 5952 5952 5953 5954 5954 5955 5956 5956 5957 5958 5958 5959 5960 5961 5961 5961 5962 5962 5962 5962 5962 5963 5963 5963 5963 5963 5964 5964 5964 5964 5964 5964 5963 5963 5963 5963 5964 5964 5963 5963 5964 5963 5963 5963 5962 5962 5961 5961 5961 5961 5960 5959 5958 5958 5957 5957 5956 5956 5955 5954 5954 5953 5953 5953 5953
5932 5933 5935 5936 5937 5937 5938 5939 5941 5941 5942 5942 5943 5944 5945 5946 5947 5948 5949 5950 5950 5951 5952 5952 5953 5954 5954 5955 5956 5956 5957 5958 5958 5959 5960 5960 5960 5961 5961 5961 5962 5962 5962 5962 5962 5963 5963 5963 5963 5963 5963 5963 5963 5963 5962 5962 5962 5962 5962 5962 5962 5961 5962 5962 5961 5961 5961 5960 5960 5960 5959 5958 5957 5957 5957 5956 5956 5955 5955 5954 5953 5952 5952 5952 5952
5930 5931 5933 5934 5935 5936 5936 5937 5938 5939 5940 5941 5941 5942 5943 5944 5945 5946 5947 5947 5948 5949 5950 5951 5952 5952 5953 5953 5954 5955 5955 5956 5957 5957 5958 5958 5959 5959 5960 5960 5960 5961 5961 5961 5961 5962 5962 5962 5962 5962 5962 5962 5962 5962 5962 5961 5961 5961 5960 5960 5960 5960 5960 5960 5960 5960 5960 5959 5959 5959 5958 5958 5957 5957 5957 5956 5956 5955 5954 5953 5952 5952 5951 5951 5951
5928 5929 5931 5932 5933 5934 5935 5936 5937 5937 5938 5939 5940 5941 5942 5942 5943 5944 5944 5945 5946 5947 5948 5949 5949 5950 5951 5952 5952 5953 5953 5954 5955 5956 5956 5957 5957 5958 5958 5959 5959 5959 5960 5960 5960 5961 5961 5961 5961 5961 5961 5961 5961 5961 5961 5961 5961 5960 5959 5959 5959 5959 5959 5959 5959 5959 5959 5958 5958 5958 5958 5957 5957 5956 5956 5956 5955 5954 5954 5953 5952 5951 5950 5950 5950
5926 5927 5929 5930 5932 5933 5933 5934 5935 5936 5937 5937 5938 5939 5940 5941 5941 5942 5942 5943 5944 5945 5946 5946 5947 5948 5949 5950 5950 5951 5952 5952 5953 5954 5954 5955 5955 5956 5956 5957 5957 5957 5958 5958 5959 5959 5959 5959 5960 5960 5960 5960 5960 5960 5960 5960 5960 5959 5959 5958 5958 5958 5957 5957 5957 5957 5957 5957 5957 5957 5957 5956 5956 5956 5956 5955 5954 5954 5953 5952 5951 5950 5949 5949 5948
5924 5925 5926 5928 5929 5931 5931 5932 5933 5934 5935 5936 5936 5937 5938 5939 5939 5940 5940 5941 5942 5943 5944 5944 5945 5946 5947 5947 5948 5949 5950 5950 5951 5951 5952 5953 5953 5954 5954 5955 5955 5955 5956 5957 5957 5958 5958 5958 5958 5958 5958 5958 5959 5959 5959 5958 5958 5958 5958 5958 5957 5956 5956 5956 5956 5956 5956 5956 5956 5955 5955 5955 5955 5955 5954 5954 5953 5953 5952 5952 5951 5950 5949 5948 5947
5921 5922 5924 5925 5927 5928 5929 5930 5931 5932 5933 5934 5935 5936 5936 5937 5937 5938 5938 5939 5940 5941 5941 5942 5943 5943 5944 5945 5946 5946 5947 5948 5948 5949 5950 5951 5951 5952 5952 5953 5953 5953 5954 5954 5955 5955 5956 5956 5956 5957 5957 5957 5957 5957 5957 5957 5956 5956 5956 5956 5956 5955 5955 5955 5955 5954 5954 5954 5954 5954 5954 5953 5953 5953 5953 5953 5952 5952 5951 5951 5950 5950 5949 5947 5946
5919 5921 5922 5923 5924 5925 5927 5928 5930 5931 5931 5932 5933 5933 5934 5935 5935 5936 5937 5937 5938 5939 5939 5940 5940 5940 5941 5942 5943 5943 5944 5945 5946 5947 5948 5948 5949 5949 5950 5950 5951 5951 5951 5952 5952 5953 5953 5954 5954 5954 5955 5954 5954 5954 5954 5954 5954 5954 5954 5954 5954 5954 5953 5953 5953 5953 5953 5953 5952 5953 5953 5952 5951 5951 5951 5951 5950 5950 5950 5950 5949 5949 5948 5946 5944
5916 5918 5919 5920 5922 5923 5924 5925 5926 5928 5929 5929 5930 5931 5931 5932 5933 5934 5934 5935 5936 5936 5937 5937 5937 5937 5938 5938 5939 5941 5942 5942 5943 5944 5945 5946 5946 5946 5947 5947 5948 5948 5949 5950 5950 5950 5950 5951 5951 5951 5952 5952 5952 5952 5952 5951 5952 5952 5952 5952 5952 5951 5951 5951 5952 5952 5952 5951 5950 5951 5951 5950 5950 5949 5949 5949 5949 5949 5948 5948 5948 5947 5946 5945 5944
5913 5915 5916 5918 5919 5920 5922 5922 5922 5923 5925 5926 5927 5927 5928 5929 5930 5931 5932 5932 5933 5934 5934 5934 5934 5934 5934 5935 5936 5938 5939 5939 5939 5941 5942 5943 5943 5943 5943 5944 5945 5946 5947 5947 5948 5948 5948 5949 5948 5949 5950 5951 5952 5951 5949 5949 5949 5949 5950 5950 5949 5950 5950 5950 5950 5950 5949 5949 5949 5949 5949 5949 5948 5947 5947 5947 5947 5947 5946 5946 5945 5945 5945 5944 5942
5910 5911 5913 5915 5916 5918 5918 5918 5919 5920 5921 5922 5923 5923 5925 5926 5927 5928 5929 5930 5931 5931 5932 5931 5931 5931 5932 5933 5934 5935 5936 5936 5936 5937 5938 5939 5940 5940 5940 5941 5942 5943 5944 5945 5946 5947 5947 5947 5946 5946 5947 5949 5950 5949 5948 5948 5948 5948 5948 5948 5947 5948 5948 5948 5948 5948 5947 5947 5946 5946 5946 5946 5946 5945 5945 5946 5945 5945 5945 5944 5943 5943 5942 5941 5940
5905 5907 5909 5910 5912 5913 5914 5915 5916 5917 5918 5919 5919 5920 5921 5922 5924 5925 5926 5927 5928 5928 5928 5928 5929 5929 5930 5930 5930 5931 5931 5932 5932 5933 5934 5936 5937 5937 5937 5938 5939 5940 5940 5942 5943 5944 5943 5944 5943 5943 5943 5944 5945 5946 5946 5946 5946 5946 5946 5946 5945 5946 5945 5945 5946 5946 5945 5945 5944 5944 5943 5944 5944 5944 5943 5944 5944 5943 5943 5942 5941 5941 5940 5939 5938
5900 5901 5903 5905 5907 5908 5910 5911 5913 5914 5914 5915 5916 5917 5918 5920 5921 5922 5923 5924 5925 5925 5924 5925 5925 5926 5926 5927 5927 5927 5928 5928 5929 5929 5930 5932 5933 5934 5934 5936 5936 5937 5937 5938 5940 5940 5941 5941 5941 5940 5940 5941 5942 5942 5943 5943 5944 5944 5944 5943 5943 5944 5943 5943 5943 5943 5943 5942 5942 5941 5941 5941 5941 5941 5941 5941 5941 5941 5941 5940 5939 5939 5939 5937 5936
5896 5896 5897 5899 5902 5904 5906 5907 5908 5909 5910 5911 5912 5914 5915 5916 5917 5918 5918 5919 5920 5920 5920 5921 5922 5922 5922 5922 5922 5923 5924 5924 5925 5926 5926 5927 5929 5930 5931 5933 5933 5934 5935 5936 5936 5937 5938 5939 5939 5938 5938 5938 5939 5939 5940 5940 5941 5941 5941 5941 5941 5941 5941 5941 5940 5940 5940 5940 5940 5939 5939 5939 5939 5939 5939 5939 5939 5939 5938 5938 5938 5937 5937 5935 5934
5894 5894 5893 5894 5896 5899 5901 5902 5903 5904 5905 5906 5908 5910 5911 5912 5913 5913 5913 5914 5915 5916 5916 5917 5918 5919 5918 5918 5918 5919 5920 5920 5921 5922 5922 5923 5925 5926 5927 5929 5930 5931 5932 5933 5933 5934 5935 5935 5936 5936 5935 5935 5936 5936 5936 5937 5937 5938 5938 5938 5938 5938 5939 5938 5937 5937 5937 5937 5937 5937 5937 5937 5936 5936 5936 5936 5936 5936 5935 5935 5935 5935 5934 5933 5932
5892 5892 5891 5892 5893 5895 5897 5898 5899 5901 5901 5902 5904 5906 5907 5908 5908 5909 5910 5911 5912 5912 5912 5914 5916 5915 5914 5914 5915 5916 5915 5915 5916 5917 5917 5919 5921 5922 5924 5925 5927 5928 5929 5929 5930 5931 5931 5932 5932 5932 5932 5932 5932 5933 5933 5934 5935 5935 5935 5935 5935 5935 5935 5935 5934 5935 5934 5934 5934 5934 5934 5934 5933 5933 5932 5932 5932 5932 5933 5932 5932 5932 5931 5931 5930
5889 5890 5890 5891 5892 5893 5894 5895 5896 5898 5899 5900 5901 5902 5902 5903 5904 5905 5906 5907 5908 5909 5910 5912 5913 5912 5911 5911 5911 5911 5911 5911 5911 5912 5913 5914 5916 5918 5920 5922 5924 5925 5925 5925 5926 5927 5928 5928 5928 5928 5928 5929 5929 5930 5931 5931 5932 5932 5932 5931 5931 5932 5932 5931 5931 5931 5931 5931 5931 5931 5930 5930 5930 5930 5929 5929 5928 5928 5929 5929 5929 5929 5928 5928 5928
5886 5887 5888 5888 5889 5890 5891 5892 5893 5895 5896 5897 5899 5898 5898 5898 5899 5900 5902 5903 5905 5907 5908 5910 5910 5909 5908 5907 5907 5907 5907 5907 5907 5908 5908 5910 5912 5914 5916 5918 5920 5922 5922 5921 5922 5923 5923 5924 5924 5924 5925 5926 5926 5927 5927 5927 5927 5928 5928 5928 5928 5928 5928 5928 5928 5928 5928 5928 5927 5927 5926 5926 5926 5926 5926 5925 5925 5925 5925 5925 5925 5925 5925 5925 5924
5883 5884 5884 5885 5886 5887 5888 5888 5889 5891 5893 5895 5895 5895 5895 5895 5896 5896 5898 5900 5902 5904 5906 5906 5905 5905 5906 5905 5904 5903 5903 5903 5904 5904 5905 5906 5907 5909 5912 5914 5916 5918 5918 5917 5918 5919 5920 5920 5920 5920 5921 5922 5923 5923 5923 5923 5923 5923 5924 5924 5924 5924 5924 5924 5924 5924 5925 5925 5924 5924 5923 5923 5922 5922 5922 5922 5922 5922 5922 5921 5921 5921 5921 5921 5920
5880 5881 5881 5882 5883 5884 5885 5886 5887 5888 5890 5891 5891 5892 5892 5893 5894 5894 5896 5898 5899 5901 5903 5902 5901 5902 5903 5902 5901 5900 5901 5900 5900 5900 5901 5902 5903 5905 5908 5910 5912 5914 5914 5914 5915 5916 5916 5917 5917 5918 5918 5919 5919 5919 5919 5919 5920 5920 5920 5920 5920 5920 5920 5920 5920 5920 5921 5921 5921 5920 5920 5920 5919 5919 5918 5918 5918 5918 5918 5918 5917 5917 5917 5917 5916
5877 5878 5879 5879 5880 5880 5881 5882 5884 5885 5886 5886 5887 5888 5889 5890 5891 5892 5893 5895 5896 5898 5899 5898 5898 5899 5899 5898 5898 5898 5898 5897 5897 5897 5897 5899 5900 5902 5904 5906 5908 5909 5910 5911 5912 5912 5912 5913 5914 5914 5915 5915 5915 5915 5916 5916 5916 5916 5916 5916 5916 5916 5916 5916 5916 5916 5916 5917 5917 5916 5916 5916 5915 5915 5914 5914 5914 5914 5914 5914 5913 5913 5913 5912 5912
5874 5875 5876 5876 5877 5877 5878 5879 5880 5881 5882 5883 5883 5885 5886 5888 5889 5890 5891 5891 5892 5893 5894 5894 5894 5895 5894 5895 5895 5895 5895 5895 5895 5895 5895 5896 5897 5898 5900 5902 5904 5906 5907 5907 5907 5907 5908 5909 5910 5910 5911 5911 5912 5912 5912 5912 5912 5912 5912 5913 5913 5913 5913 5912 5912 5913 5912 5912 5913 5912 5912 5912 5912 5911 5911 5910 5910 5910 5910 5910 5909 5908 5908 5908 5908
5870 5871 5872 5873 5874 5874 5875 5876 5876 5876 5877 5879 5880 5881 5882 5884 5886 5887 5888 5888 5888 5889 5889 5890 5891 5891 5892 5892 5892 5892 5892 5892 5892 5893 5893 5894 5895 5896 5897 5898 5900 5902 5903 5904 5904 5904 5905 5905 5906 5907 5907 5907 5908 5908 5908 5908 5908 5909 5909 5909 5909 5909 5909 5909 5909 5909 5909 5908 5908 5908 5908 5908 5908 5907 5907 5906 5906 5906 5906 5905 5905 5904 5903 5903 5903
5865 5866 5868 5869 5870 5871 5872 5873 5873 5873 5874 5875 5876 5877 5878 5879 5881 5883 5884 5884 5885 5885 5885 5885 5886 5888 5889 5889 5888 5888 5889 5889 5888 5889 5890 5891 5892 5893 5894 5895 5896 5898 5899 5900 5901 5902 5902 5902 5902 5903 5903 5904 5904 5904 5904 5905 5905 5905 5905 5905 5905 5905 5904 5904 5904 5904 5904 5904 5904 5904 5903 5903 5903 5903 5903 5902 5902 5902 5901 5901 5900 5899 5899 5898 5898
5860 5861 5863 5864 5865 5867 5868 5869 5869 5870 5870 5871 5872 5873 5874 5875 5876 5878 5879 5880 5881 5881 5881 5881 5882 5884 5885 5885 5884 5884 5885 5885 5885 5885 5886 5887 5888 5889 5889 5891 5892 5893 5894 5895 5896 5897 5898 5898 5898 5899 5899 5900 5900 5900 5900 5900 5900 5900 5900 5900 5900 5900 5900 5900 5899 5899 5899 5899 5899 5899 5898 5897 5897 5897 5897 5897 5896 5897 5897 5896 5896 5895 5894 5894 5894
5855 5856 5857 5859 5860 5862 5863 5864 5865 5866 5866 5867 5868 5869 5870 5870 5871 5873 5874 5875 5876 5878 5877 5877 5879 5880 5881 5881 5880 5879 5880 5881 5881 5881 5882 5883 5884 5885 5885 5886 5888 5889 5889 5890 5891 5892 5893 5893 5894 5894 5894 5895 5895 5895 5895 5895 5895 5895 5895 5895 5895 5895 5895 5895 5895 5895 5895 5895 5894 5894 5893 5893 5892 5892 5891 5891 5890 5890 5890 5890 5890 5889 5889 5889 5888
5850 5851 5852 5853 5855 5856 5857 5858 5860 5861 5862 5863 5863 5864 5865 5866 5866 5867 5869 5870 5871 5873 5873 5873 5874 5876 5876 5877 5877 5876 5875 5875 5876 5877 5879 5879 5880 5880 5881 5882 5883 5884 5884 5885 5885 5886 5887 5887 5888 5888 5889 5889 5889 5890 5890 5890 5890 5890 5890 5889 5889 5889 5889 5889 5889 5890 5890 5890 5889 5889 5888 5888 5888 5887 5886 5886 5885 5885 5884 5883 5883 5883 5883 5883 5882
5844 5845 5846 5848 5849 5850 5851 5853 5854 5855 5856 5857 5858 5859 5860 5861 5861 5862 5863 5864 5865 5867 5868 5868 5870 5871 5871 5872 5873 5872 5871 5871 5871 5872 5874 5875 5875 5876 5877 5877 5878 5879 5879 5880 5880 5880 5881 5881 5881 5882 5882 5882 5883 5883 5884 5884 5885 5885 5885 5884 5884 5883 5883 5883 5884 5884 5883 5883 5883 5883 5883 5883 5882 5882 5882 5881 5880 5880 5879 5878 5877 5877 5876 5876 5876
5838 5839 5840 5841 5843 5844 5845 5847 5848 5849 5850 5851 5852 5853 5854 5855 5856 5857 5858 5859 5860 5861 5862 5863 5864 5865 5866 5866 5866 5866 5866 5866 5866 5867 5869 5870 5871 5872 5872 5873 5873 5874 5874 5875 5875 5875 5875 5875 5875 5876 5876 5876 5876 5877 5877 5877 5878 5878 5878 5878 5878 5878 5877 5878 5878 5878 5877 5877 5878 5877 5877 5877 5876 5876 5876 5875 5875 5875 5874 5873 5871 5871 5870 5870 5870
5832 5832 5833 5834 5836 5837 5839 5840 5841 5843 5844 5845 5846 5847 5848 5849 5850 5851 5851 5852 5854 5855 5856 5857 5858 5859 5860 5861 5861 5860 5861 5861 5862 5863 5863 5864 5865 5866 5867 5868 5868 5868 5869 5869 5869 5870 5870 5870 5870 5870 5870 5870 5870 5871 5871 5871 5871 5871 5871 5871 5871 5871 5871 5871 5871 5871 5870 5871 5871 5870 5870 5869 5869 5869 5869 5868 5868 5868 5868 5867 5866 5865 5864 5864 5863
5824 5826 5827 5828 5829 5830 5831 5833 5834 5836 5837 5838 5839 5840 5841 5843 5844 5844 5845 5846 5847 5848 5849 5850 5851 5853 5854 5855 5855 5855 5855 5856 5857 5857 5858 5859 5859 5860 5861 5862 5862 5862 5863 5863 5863 5863 5864 5864 5864 5864 5864 5864 5864 5864 5865 5865 5865 5865 5865 5865 5864 5864 5864 5864 5863 5863 5863 5863 5863 5862 5862 5861 5861 5861 5861 5860 5860 5859 5859 5859 5859 5858 5857 5857 5856
5816 5818 5820 5821 5822 5823 5824 5825 5827 5828 5829 5831 5832 5833 5834 5835 5836 5837 5838 5840 5841 5841 5842 5843 5844 5845 5846 5848 5849 5849 5850 5850 5851 5852 5852 5852 5853 5853 5854 5855 5856 5856 5857 5857 5857 5857 5857 5858 5858 5858 5858 5858 5858 5858 5858 5858 5858 5858 5858 5858 5858 5858 5857 5856 5856 5856 5856 5856 5855 5854 5854 5853 5853 5852 5852 5851 5851 5850 5850 5850 5849 5849 5849 5848 5848
5809 5810 5811 5813 5814 5815 5816 5818 5819 5820 5821 5822 5824 5826 5827 5828 5829 5830 5831 5832 5833 5834 5835 5836 5837 5838 5839 5840 5841 5842 5843 5843 5844 5845 5846 5846 5846 5846 5847 5847 5849 5850 5850 5850 5850 5850 5851 5851 5851 5851 5851 5851 5851 5851 5851 5851 5851 5851 5851 5851 5851 5850 5850 5849 5848 5848 5848 5848 5847 5847 5846 5845 5845 5844 5843 5843 5842 5841 5841 5840 5840 5840 5839 5838 5838
5801 5802 5803 5804 5805 5806 5808 5809 5810 5812 5813 5814 5816 5817 5818 5820 5821 5822 5823 5824 5825 5826 5827 5828 5829 5830 5831 5833 5834 5834 5835 5836 5837 5838 5838 5839 5839 5839 5839 5840 5841 5842 5842 5842 5843 5844 5844 5843 5843 5843 5844 5844 5844 5844 5844 5843 5844 5843 5843 5843 5843 5842 5842 5841 5840 5840 5840 5840 5839 5838 5838 5837 5836 5835 5835 5834 5833 5832 5832 5831 5831 5830 5829 5829 5828
5793 5794 5794 5795 5796 5797 5798 5800 5801 5803 5804 5806 5807 5808 5810 5811 5812 5814 5815 5816 5817 5818 5819 5821 5822 5821 5823 5825 5827 5827 5827 5828 5829 5829 5830 5830 5830 5831 5831 5832 5833 5833 5834 5835 5836 5836 5835 5835 5835 5836 5836 5836 5836 5836 5836 5836 5836 5836 5836 5836 5835 5834 5834 5833 5833 5832 5832 5832 5831 5830 5830 5829 5828 5827 5827 5826 5825 5824 5823 5822 5821 5820 5819 5819 5818
5785 5786 5786 5786 5787 5788 5789 5790 5792 5793 5795 5796 5797 5799 5800 5802 5804 5805 5806 5808 5809 5810 5811 5813 5814 5814 5815 5818 5819 5817 5817 5819 5821 5821 5821 5822 5822 5823 5823 5824 5824 5825 5825 5827 5828 5828 5828 5828 5828 5829 5829 5829 5828 5828 5827 5827 5828 5828 5828 5827 5826 5826 5826 5825 5824 5824 5824 5823 5822 5822 5821 5820 5819 5819 5818 5817 5816 5815 5814 5813 5812 5811 5811 5810 5808
5776 5777 5778 5778 5779 5780 5781 5782 5783 5784 5785 5787 5788 5789 5791 5792 5794 5795 5797 5799 5800 5801 5802 5804 5806 5807 5808 5811 5811 5808 5807 5810 5812 5812 5812 5813 5814 5815 5815 5815 5816 5817 5817 5818 5819 5820 5820 5820 5821 5821 5820 5820 5819 5819 5819 5819 5819 5820 5819 5818 5817 5817 5817 5817 5816 5816 5815 5814 5814 5814 5812 5811 5811 5810 5809 5808 5807 5806 5805 5805 5804 5803 5802 5801 5799
5767 5768 5769 5770 5770 5771 5772 5773 5774 5775 5776 5778 5779 5780 5781 5783 5784 5786 5787 5789 5790 5792 5793 5794 5797 5799 5800 5801 5802 5801 5801 5801 5802 5802 5804 5805 5805 5806 5806 5806 5807 5809 5809 5809 5810 5812 5812 5812 5812 5812 5811 5811 5810 5810 5810 5810 5811 5810 5810 5809 5808 5808 5808 5808 5807 5807 5807 5806 5805 5805 5804 5802 5801 5801 5800 5799 5798 5797 5796 5796 5795 5793 5792 5790 5788
5758 5759 5761 5761 5761 5763 5764 5764 5765 5767 5768 5769 5770 5771 5772 5774 5775 5776 5778 5779 5780 5782 5782 5784 5787 5790 5790 5791 5793 5793 5793 5793 5794 5794 5795 5796 5797 5797 5798 5798 5798 5799 5799 5800 5802 5803 5803 5803 5803 5803 5802 5802 5802 5802 5802 5802 5801 5801 5801 5800 5800 5800 5800 5799 5799 5799 5798 5797 5796 5795 5794 5792 5792 5791 5790 5789 5789 5788 5787 5786 5784 5783 5781 5779 5777
5749 5750 5752 5752 5752 5753 5754 5755 5756 5758 5759 5760 5761 5762 5763 5764 5765 5767 5768 5769 5770 5772 5773 5774 5777 5780 5781 5781 5783 5784 5784 5784 5785 5786 5786 5787 5788 5789 5789 5789 5789 5790 5791 5793 5794 5794 5794 5793 5793 5793 5792 5792 5792 5792 5792 5792 5792 5792 5791 5791 5791 5791 5791 5791 5791 5790 5788 5787 5786 5785 5783 5782 5782 5781 5780 5779 5779 5778 5777 5775 5774 5772 5769 5768 5767
5738 5741 5743 5744 5743 5743 5744 5745 5747 5748 5749 5750 5751 5752 5753 5755 5756 5758 5759 5760 5761 5762 5763 5764 5767 5770 5771 5772 5773 5774 5774 5775 5776 5777 5777 5778 5779 5779 5779 5780 5780 5782 5783 5784 5784 5784 5784 5784 5783 5782 5782 5782 5783 5783 5783 5782 5782 5782 5782 5781 5782 5782 5782 5782 5781 5780 5778 5777 5776 5775 5774 5773 5772 5771 5770 5769 5768 5767 5766 5765 5763 5761 5758 5757 5757
5728 5729 5732 5735 5736 5734 5734 5735 5737 5739 5740 5741 5741 5742 5744 5746 5748 5749 5750 5752 5753 5754 5755 5755 5756 5759 5761 5763 5763 5764 5764 5765 5766 5767 5768 5769 5769 5769 5770 5771 5772 5773 5774 5774 5775 5775 5775 5773 5772 5773 5773 5773 5774 5774 5773 5773 5772 5772 5772 5773 5773 5773 5773 5772 5771 5769 5768 5767 5766 5765 5764 5763 5762 5761 5760 5759 5757 5756 5755 5754 5752 5749 5747 5746 5745
5718 5718 5720 5723 5725 5725 5725 5726 5728 5729 5731 5732 5732 5733 5735 5737 5738 5740 5742 5743 5744 5745 5746 5746 5747 5748 5750 5752 5754 5754 5755 5756 5757 5758 5758 5758 5758 5759 5761 5762 5763 5763 5764 5766 5766 5766 5764 5762 5763 5764 5764 5764 5764 5764 5763 5763 5762 5762 5763 5764 5764 5763 5763 5761 5760 5759 5758 5757 5756 5755 5754 5753 5752 5751 5749 5748 5746 5745 5744 5743 5741 5739 5737 5735 5733
5710 5709 5710 5711 5712 5713 5715 5718 5720 5721 5722 5722 5723 5724 5726 5728 5729 5731 5733 5733 5734 5736 5737 5737 5738 5739 5740 5741 5743 5745 5746 5747 5748 5748 5748 5748 5748 5749 5751 5752 5752 5753 5755 5756 5756 5755 5753 5753 5754 5755 5755 5755 5754 5753 5753 5753 5752 5752 5753 5755 5754 5753 5752 5750 5749 5748 5747 5747 5746 5745 5744 5743 5742 5740 5738 5737 5735 5734 5733 5732 5730 5728 5726 5723 5722
5701 5700 5701 5701 5701 5703 5706 5709 5712 5713 5713 5713 5714 5716 5718 5719 5721 5723 5724 5725 5725 5727 5727 5728 5729 5730 5731 5732 5733 5736 5737 5738 5738 5738 5738 5739 5739 5740 5740 5741 5742 5744 5745 5745 5744 5744 5744 5744 5745 5745 5745 5745 5744 5743 5743 5743 5742 5742 5744 5745 5744 5742 5741 5739 5738 5738 5737 5736 5735 5734 5733 5732 5731 5729 5728 5726 5725 5724 5722 5721 5720 5718 5715 5713 5711
5691 5691 5692 5692 5692 5694 5697 5700 5702 5703 5704 5705 5706 5707 5709 5710 5712 5714 5716 5717 5717 5718 5719 5719 5720 5721 5721 5723 5724 5726 5727 5728 5729 5729 5730 5730 5730 5730 5731 5732 5733 5734 5735 5734 5734 5734 5734 5734 5734 5735 5735 5735 5734 5733 5733 5732 5731 5732 5735 5735 5733 5731 5730 5729 5728 5728 5727 5726 5725 5724 5723 5721 5720 5719 5718 5717 5715 5714 5712 5711 5709 5708 5705 5703 5701
5680 5681 5683 5684 5684 5685 5687 5689 5691 5693 5696 5697 5698 5699 5701 5702 5704 5705 5706 5708 5709 5710 5711 5711 5711 5712 5713 5714 5715 5716 5717 5718 5719 5720 5720 5720 5720 5721 5722 5723 5724 5725 5725 5725 5724 5724 5724 5725 5725 5725 5725 5725 5724 5724 5724 5723 5722 5723 5725 5724 5722 5721 5720 5720 5719 5718 5718 5717 5716 5714 5713 5711 5711 5710 5709 5707 5706 5704 5703 5701 5699 5698 5696 5693 5691
5672 5673 5674 5675 5675 5676 5678 5679 5681 5684 5687 5688 5688 5690 5693 5694 5696 5696 5697 5698 5700 5701 5702 5702 5703 5703 5705 5705 5706 5707 5708 5709 5710 5711 5711 5710 5711 5712 5713 5714 5714 5715 5715 5715 5715 5715 5715 5715 5716 5716 5715 5715 5715 5715 5714 5714 5714 5714 5714 5713 5712 5711 5711 5710 5709 5709 5708 5707 5706 5704 5703 5702 5702 5701 5699 5698 5697 5695 5694 5692 5690 5688 5686 5684 5681
5665 5665 5664 5665 5666 5667 5669 5671 5673 5675 5677 5678 5679 5681 5684 5686 5687 5688 5688 5689 5691 5692 5693 5693 5694 5696 5697 5697 5698 5699 5700 5700 5701 5702 5702 5702 5702 5704 5704 5705 5705 5706 5706 5706 5706 5706 5706 5706 5706 5706 5706 5706 5705 5705 5705 5705 5705 5704 5703 5703 5703 5702 5701 5700 5700 5700 5699 5698 5696 5695 5694 5694 5693 5692 5690 5689 5687 5686 5684 5683 5680 5678 5676 5674 5671